Weather History for Bentonville, AR

Change the Weather History Date:

Tuesday, May 14, 2013

  Actual Average Record
Temperature  
Mean Temperature 73 °F -  
Max Temperature 84 °F 75 °F 90 °F (1984)
Min Temperature 62 °F 51 °F 38 °F (1954)
Cooling Degree Days 8    
Growing Degree Days 23 (Base 50)    
Moisture  
Dew Point 52 °F    
Average Humidity 48    
Maximum Humidity 64    
Minimum Humidity 32    
Precipitation  
Precipitation 0.00 in - - ()
Sea Level Pressure  
Sea Level Pressure 30.03 in    
Wind  
Wind Speed 9 mph (SSW)    
Max Wind Speed 16 mph    
Max Gust Speed 22 mph    
Visibility 10 miles    
Events      
Averages and records for this station are not official NWS values.
T = Trace of Precipitation, MM = Missing Value Source: NWS Daily Summary

Daily Weather History Graph

Daily Weather History Graph

Search for Another Location

Airport:

Trip Planner

Search our weather history database for the weather conditions in past years. The results will help you decide how hot, cold, wet, or windy it might be!

Date:

Astronomy

May. 14, 2013 Rise Set
Actual Time 6:10 AM CDT 8:16 PM CDT
Civil Twilight 5:42 AM CDT 8:44 PM CDT
Nautical Twilight 5:07 AM CDT 9:19 PM CDT
Astronomical Twilight 4:29 AM CDT 9:57 PM CDT
Moon 9:51 AM CDT (5/14) No Moon Set
Length of Visible Light 15h 02m
Length of Day
14h 05m
Waxing Crescent, 19% of the Moon is Illuminated
May 14
Waxing Crescent
May 17
First Quarter
May 24
Full
May 31
Last Quarter
Jun 8
New

Hourly Weather History & Observations

Time (CDT) Temp. Heat Index Dew Point Humidity Pressure Visibility Wind Dir Wind Speed Gust Speed Precip Events Conditions
12:15 AM 66.2 °F - 51.8 °F 60% 30.05 in 10.0 mi SSW 6.9 mph - N/A   Clear
12:35 AM 66.2 °F - 51.8 °F 60% 30.05 in 10.0 mi South 5.8 mph - N/A   Clear
12:55 AM 66.2 °F - 51.8 °F 60% 30.05 in 10.0 mi South 6.9 mph - N/A   Clear
1:15 AM 66.2 °F - 51.8 °F 60% 30.05 in 10.0 mi South 6.9 mph - N/A   Clear
1:35 AM 66.2 °F - 51.8 °F 60% 30.04 in 10.0 mi SSW 8.1 mph - N/A   Clear
1:55 AM 64.4 °F - 51.8 °F 64% 30.04 in 10.0 mi South 6.9 mph - N/A   Clear
2:15 AM 64.4 °F - 50.0 °F 59% 30.04 in 10.0 mi SSW 6.9 mph - N/A   Clear
2:35 AM 64.4 °F - 50.0 °F 59% 30.04 in 10.0 mi South 6.9 mph - N/A   Clear
2:55 AM 64.4 °F - 50.0 °F 59% 30.03 in 10.0 mi South 5.8 mph - N/A   Clear
3:15 AM 64.4 °F - 48.2 °F 56% 30.03 in 10.0 mi South 5.8 mph - N/A   Clear
3:35 AM 62.6 °F - 48.2 °F 59% 30.03 in 10.0 mi South 5.8 mph - N/A   Clear
3:55 AM 62.6 °F - 48.2 °F 59% 30.03 in 10.0 mi SSW 6.9 mph - N/A   Clear
4:15 AM 62.6 °F - 48.2 °F 59% 30.03 in 10.0 mi SSW 5.8 mph - N/A   Clear
4:35 AM 62.6 °F - 48.2 °F 59% 30.03 in 10.0 mi SSW 5.8 mph - N/A   Clear
4:55 AM 62.6 °F - 46.4 °F 55% 30.03 in 10.0 mi SSW 6.9 mph - N/A   Clear
5:15 AM 62.6 °F - 46.4 °F 55% 30.04 in 10.0 mi SSW 5.8 mph - N/A   Clear
5:35 AM 62.6 °F - 46.4 °F 55% 30.04 in 10.0 mi SSW 5.8 mph - N/A   Clear
5:55 AM 62.6 °F - 46.4 °F 55% 30.04 in 10.0 mi SSW 6.9 mph - N/A   Clear
6:15 AM 62.6 °F - 46.4 °F 55% 30.05 in 10.0 mi SSW 5.8 mph - N/A   Clear
6:35 AM 62.6 °F - 46.4 °F 55% 30.05 in 10.0 mi SSW 6.9 mph - N/A   Clear
6:55 AM 62.6 °F - 46.4 °F 55% 30.05 in 10.0 mi SSW 8.1 mph - N/A   Clear
7:15 AM 64.4 °F - 48.2 °F 56% 30.06 in 10.0 mi SSW 8.1 mph - N/A   Clear
7:35 AM 66.2 °F - 48.2 °F 52% 30.06 in 10.0 mi SW 9.2 mph - N/A   Clear
7:55 AM 66.2 °F - 50.0 °F 56% 30.07 in 10.0 mi SW 10.4 mph 16.1 mph N/A   Clear
8:15 AM 68.0 °F - 50.0 °F 52% 30.07 in 10.0 mi SSW 10.4 mph 16.1 mph N/A   Clear
8:35 AM 69.8 °F - 50.0 °F 49% 30.08 in 10.0 mi SSW 16.1 mph 20.7 mph N/A   Clear
8:55 AM 69.8 °F - 51.8 °F 53% 30.08 in 10.0 mi WSW 12.7 mph 21.9 mph N/A   Clear
9:15 AM 71.6 °F - 51.8 °F 50% 30.08 in 10.0 mi SW 15.0 mph 18.4 mph N/A   Clear
9:35 AM 71.6 °F - 51.8 °F 50% 30.08 in 10.0 mi SW 11.5 mph 19.6 mph N/A   Clear
9:55 AM 73.4 °F - 51.8 °F 47% 30.08 in 10.0 mi WSW 16.1 mph 20.7 mph N/A   Clear
10:15 AM 73.4 °F - 53.6 °F 50% 30.08 in 10.0 mi SW 13.8 mph 18.4 mph N/A   Clear
10:35 AM 75.2 °F - 53.6 °F 47% 30.08 in 10.0 mi WSW 12.7 mph 17.3 mph N/A   Clear
10:55 AM 75.2 °F - 53.6 °F 47% 30.08 in 10.0 mi SW 12.7 mph 21.9 mph N/A   Clear
11:15 AM 75.2 °F - 53.6 °F 47% 30.09 in 10.0 mi WSW 15.0 mph - N/A   Clear
11:35 AM 78.8 °F - 55.4 °F 44% 30.08 in 10.0 mi WSW 13.8 mph - N/A   Clear
11:55 AM 78.8 °F - 55.4 °F 44% 30.08 in 10.0 mi SW 13.8 mph - N/A   Clear
12:15 PM 80.6 °F 80.5 °F 55.4 °F 42% 30.07 in 10.0 mi SW 10.4 mph - N/A   Clear
12:35 PM 80.6 °F 80.5 °F 55.4 °F 42% 30.07 in 10.0 mi WSW 10.4 mph - N/A   Clear
12:55 PM 82.4 °F 81.7 °F 55.4 °F 39% 30.06 in 10.0 mi WSW 12.7 mph - N/A   Clear
1:15 PM 82.4 °F 82.0 °F 57.2 °F 42% 30.06 in 10.0 mi SSW 13.8 mph - N/A   Clear
1:35 PM 82.4 °F 82.0 °F 57.2 °F 42% 30.05 in 10.0 mi SW 11.5 mph - N/A   Clear
1:55 PM 84.2 °F 83.0 °F 55.4 °F 37% 30.04 in 10.0 mi WSW 11.5 mph 17.3 mph N/A   Clear
2:15 PM 84.2 °F 83.5 °F 57.2 °F 40% 30.04 in 10.0 mi SW 9.2 mph 16.1 mph N/A   Clear
2:35 PM 84.2 °F 83.0 °F 55.4 °F 37% 30.03 in 10.0 mi SSW 13.8 mph 19.6 mph N/A   Clear
2:55 PM 84.2 °F 83.0 °F 55.4 °F 37% 30.03 in 10.0 mi SW 10.4 mph 17.3 mph N/A   Clear
3:15 PM 84.2 °F 83.0 °F 55.4 °F 37% 30.02 in 10.0 mi SW 10.4 mph - N/A   Clear
3:35 PM 84.2 °F 82.8 °F 53.6 °F 35% 30.02 in 10.0 mi SW 12.7 mph - N/A   Clear
3:55 PM 84.2 °F - 51.8 °F 33% 30.01 in 10.0 mi SW 12.7 mph - N/A   Clear
4:15 PM 84.2 °F - 51.8 °F 33% 30.01 in 10.0 mi SW 11.5 mph 19.6 mph N/A   Clear
4:35 PM 84.2 °F 82.8 °F 53.6 °F 35% 30.00 in 10.0 mi SW 16.1 mph 19.6 mph N/A   Clear
4:55 PM 84.2 °F 82.8 °F 53.6 °F 35% 30.00 in 10.0 mi SW 10.4 mph 17.3 mph N/A   Clear
5:15 PM 84.2 °F - 51.8 °F 33% 30.00 in 10.0 mi SW 16.1 mph 20.7 mph N/A   Clear
5:35 PM 84.2 °F 83.0 °F 55.4 °F 37% 29.99 in 10.0 mi SSW 13.8 mph 18.4 mph N/A   Clear
5:55 PM 84.2 °F 82.8 °F 53.6 °F 35% 29.99 in 10.0 mi SSW 11.5 mph 19.6 mph N/A   Clear
6:15 PM 82.4 °F - 50.0 °F 32% 29.98 in 10.0 mi SSW 11.5 mph 20.7 mph N/A   Clear
6:35 PM 82.4 °F 81.4 °F 53.6 °F 37% 29.98 in 10.0 mi SW 10.4 mph 16.1 mph N/A   Clear
6:55 PM 82.4 °F 81.4 °F 53.6 °F 37% 29.97 in 10.0 mi SSW 10.4 mph - N/A   Clear
7:15 PM 80.6 °F - 51.8 °F 37% 29.97 in 10.0 mi SSW 9.2 mph 16.1 mph N/A   Clear
7:35 PM 78.8 °F - 51.8 °F 39% 29.97 in 10.0 mi SSW 5.8 mph - N/A   Clear
7:55 PM 77.0 °F - 51.8 °F 41% 29.97 in 10.0 mi SSW 5.8 mph - N/A   Clear
8:15 PM 75.2 °F - 51.8 °F 44% 29.97 in 10.0 mi SSW 5.8 mph - N/A   Clear
8:35 PM 75.2 °F - 51.8 °F 44% 29.97 in 10.0 mi South 6.9 mph - N/A   Clear
8:55 PM 73.4 °F - 51.8 °F 47% 29.97 in 10.0 mi South 6.9 mph - N/A   Clear
9:15 PM 73.4 °F - 51.8 °F 47% 29.98 in 10.0 mi South 5.8 mph - N/A   Clear
9:35 PM 71.6 °F - 51.8 °F 50% 29.98 in 10.0 mi South 5.8 mph - N/A   Clear
9:55 PM 69.8 °F - 51.8 °F 53% 29.99 in 10.0 mi South 6.9 mph - N/A   Clear
10:15 PM 71.6 °F - 51.8 °F 50% 29.99 in 10.0 mi South 6.9 mph - N/A   Clear
10:35 PM 69.8 °F - 51.8 °F 53% 30.00 in 10.0 mi South 6.9 mph - N/A   Clear
10:55 PM 69.8 °F - 51.8 °F 53% 30.00 in 10.0 mi SSW 9.2 mph - N/A   Clear
11:15 PM 69.8 °F - 51.8 °F 53% 30.00 in 10.0 mi SSW 6.9 mph - N/A   Clear
11:35 PM 69.8 °F - 50.0 °F 49% 30.00 in 10.0 mi South 6.9 mph - N/A   Clear
11:55 PM 68.0 °F - 50.0 °F 52% 30.00 in 10.0 mi South 8.1 mph - N/A   Clear